Time,TemperatureF,DewpointF,PressureIn,WindDirection,WindDirectionDegrees,WindSpeedMPH,WindSpeedGustMPH,Humidity,HourlyPrecipIn,Conditions,Clouds,dailyrainin,SolarRadiationWatts/m^2,SoftwareType,DateUTC
2013-02-26 00:05:00,45.5,41.9,30.24,NW,308,0.0,0.0,87,0.00,,,0.00,0,Wunderground v.1.15,2013-02-26 08:05:00,
2013-02-26 00:14:00,45.2,41.6,30.24,NW,309,0.0,0.0,87,0.00,,,0.00,0,Wunderground v.1.15,2013-02-26 08:14:00,
2013-02-26 00:19:00,45.1,41.5,30.24,NW,309,1.0,1.0,87,0.00,,,0.00,0,Wunderground v.1.15,2013-02-26 08:19:00,
2013-02-26 00:24:00,44.9,41.3,30.24,NW,307,3.0,3.0,87,0.00,,,0.00,0,Wunderground v.1.15,2013-02-26 08:24:00,
2013-02-26 00:34:00,44.9,41.3,30.24,NW,309,3.0,4.0,87,0.00,,,0.00,0,Wunderground v.1.15,2013-02-26 08:34:00,
2013-02-26 00:39:00,44.8,41.5,30.24,NW,309,2.0,2.0,88,0.00,,,0.00,0,Wunderground v.1.15,2013-02-26 08:39:00,
2013-02-26 00:49:00,45.4,42.3,30.24,NW,309,1.0,1.0,89,0.00,,,0.00,0,Wunderground v.1.15,2013-02-26 08:49:00,
2013-02-26 00:59:00,46.0,42.6,30.24,NW,308,1.0,3.0,88,0.00,,,0.00,0,Wunderground v.1.15,2013-02-26 08:59:00,
2013-02-26 01:04:00,46.0,42.3,30.24,NW,309,2.0,3.0,87,0.00,,,0.00,0,Wunderground v.1.15,2013-02-26 09:04:00,
2013-02-26 01:14:00,45.7,42.1,30.23,NW,308,2.0,2.0,87,0.00,,,0.00,0,Wunderground v.1.15,2013-02-26 09:14:00,
2013-02-26 01:24:00,45.2,41.3,30.23,NW,309,2.0,2.0,86,0.00,,,0.00,0,Wunderground v.1.15,2013-02-26 09:24:00,
2013-02-26 01:29:00,45.0,41.1,30.23,NW,309,2.0,3.0,86,0.00,,,0.00,0,Wunderground v.1.15,2013-02-26 09:29:00,
2013-02-26 01:39:00,44.7,40.8,30.24,NW,309,3.0,3.0,86,0.00,,,0.00,0,Wunderground v.1.15,2013-02-26 09:39:00,
2013-02-26 01:49:00,44.6,40.7,30.24,NW,308,3.0,3.0,86,0.00,,,0.00,0,Wunderground v.1.15,2013-02-26 09:49:00,
2013-02-26 01:59:00,44.4,40.5,30.23,NW,309,3.0,3.0,86,0.00,,,0.00,0,Wunderground v.1.15,2013-02-26 09:59:00,
2013-02-26 02:09:00,44.2,40.0,30.23,North,354,3.0,3.0,85,0.00,,,0.00,0,Wunderground v.1.15,2013-02-26 10:09:00,
2013-02-26 02:14:00,44.1,39.9,30.23,North,352,3.0,4.0,85,0.00,,,0.00,0,Wunderground v.1.15,2013-02-26 10:14:00,
2013-02-26 02:19:00,44.0,39.8,30.23,North,355,4.0,5.0,85,0.00,,,0.00,0,Wunderground v.1.15,2013-02-26 10:19:00,
2013-02-26 02:29:00,44.2,40.0,30.23,NE,35,5.0,6.0,85,0.00,,,0.00,0,Wunderground v.1.15,2013-02-26 10:29:00,
2013-02-26 02:39:00,44.6,40.4,30.23,NE,43,5.0,5.0,85,0.00,,,0.00,0,Wunderground v.1.15,2013-02-26 10:39:00,
2013-02-26 02:44:00,44.8,40.3,30.23,NE,35,5.0,7.0,84,0.00,,,0.00,0,Wunderground v.1.15,2013-02-26 10:44:00,
2013-02-26 02:54:00,44.9,39.7,30.22,NNE,18,5.0,7.0,82,0.00,,,0.00,0,Wunderground v.1.15,2013-02-26 10:54:00,
2013-02-26 02:59:00,44.9,39.7,30.22,NNE,31,6.0,8.0,82,0.00,,,0.00,0,Wunderground v.1.15,2013-02-26 10:59:00,
2013-02-26 03:09:00,45.0,39.2,30.22,NE,39,6.0,6.0,80,0.00,,,0.00,0,Wunderground v.1.15,2013-02-26 11:09:00,
2013-02-26 03:19:00,44.9,39.1,30.22,NNE,26,6.0,7.0,80,0.00,,,0.00,0,Wunderground v.1.15,2013-02-26 11:19:00,
2013-02-26 03:24:00,44.8,39.0,30.21,NNE,26,5.0,8.0,80,0.00,,,0.00,0,Wunderground v.1.15,2013-02-26 11:24:00,
2013-02-26 03:34:00,44.7,39.2,30.22,NNE,22,7.0,8.0,81,0.00,,,0.00,0,Wunderground v.1.15,2013-02-26 11:34:00,
2013-02-26 03:39:00,44.6,39.1,30.22,NNE,18,7.0,7.0,81,0.00,,,0.00,0,Wunderground v.1.15,2013-02-26 11:39:00,
2013-02-26 03:49:00,44.3,38.8,30.22,NNE,20,7.0,7.0,81,0.00,,,0.00,0,Wunderground v.1.15,2013-02-26 11:49:00,
2013-02-26 03:59:00,44.2,39.4,30.22,NNE,20,7.0,7.0,83,0.00,,,0.00,0,Wunderground v.1.15,2013-02-26 11:59:00,
2013-02-26 04:04:00,44.1,39.6,30.22,NNE,20,5.0,7.0,84,0.00,,,0.00,0,Wunderground v.1.15,2013-02-26 12:04:00,
2013-02-26 04:14:00,43.9,39.4,30.21,North,6,6.0,7.0,84,0.00,,,0.00,0,Wunderground v.1.15,2013-02-26 12:14:00,
2013-02-26 04:19:00,43.8,39.3,30.22,North,353,7.0,7.0,84,0.00,,,0.00,0,Wunderground v.1.15,2013-02-26 12:19:00,
2013-02-26 04:29:00,43.9,39.7,30.22,NNE,22,6.0,6.0,85,0.00,,,0.00,0,Wunderground v.1.15,2013-02-26 12:29:00,
2013-02-26 04:39:00,43.5,39.0,30.22,NNE,27,6.0,6.0,84,0.00,,,0.00,0,Wunderground v.1.15,2013-02-26 12:39:00,
2013-02-26 04:44:00,43.3,38.8,30.22,NNE,20,6.0,6.0,84,0.00,,,0.00,0,Wunderground v.1.15,2013-02-26 12:44:00,
2013-02-26 04:54:00,43.1,38.6,30.22,NNE,22,5.0,5.0,84,0.00,,,0.00,0,Wunderground v.1.15,2013-02-26 12:54:00,
2013-02-26 05:04:00,42.9,38.7,30.22,NNE,21,4.0,5.0,85,0.00,,,0.00,0,Wunderground v.1.15,2013-02-26 13:04:00,
2013-02-26 05:09:00,42.9,38.7,30.23,NNE,26,4.0,5.0,85,0.00,,,0.00,0,Wunderground v.1.15,2013-02-26 13:09:00,
2013-02-26 05:19:00,43.3,39.4,30.23,NE,38,6.0,7.0,86,0.00,,,0.00,0,Wunderground v.1.15,2013-02-26 13:19:00,
2013-02-26 05:29:00,43.8,39.6,30.24,NE,34,6.0,6.0,85,0.00,,,0.00,0,Wunderground v.1.15,2013-02-26 13:29:00,
2013-02-26 05:34:00,43.9,39.7,30.24,NNE,23,6.0,6.0,85,0.00,,,0.00,0,Wunderground v.1.15,2013-02-26 13:34:00,
2013-02-26 05:39:00,43.9,39.4,30.24,NNE,22,5.0,5.0,84,0.00,,,0.00,0,Wunderground v.1.15,2013-02-26 13:39:00,
2013-02-26 05:49:00,43.6,39.1,30.24,NNE,24,4.0,7.0,84,0.00,,,0.00,0,Wunderground v.1.15,2013-02-26 13:49:00,
2013-02-26 05:59:00,43.3,38.8,30.24,NNE,26,4.0,4.0,84,0.00,,,0.00,0,Wunderground v.1.15,2013-02-26 13:59:00,
2013-02-26 06:05:00,43.1,38.6,30.24,NNE,26,3.0,4.0,84,0.00,,,0.00,0,Wunderground v.1.15,2013-02-26 14:05:00,
2013-02-26 06:14:00,42.9,38.4,30.24,NNE,25,3.0,4.0,84,0.00,,,0.00,0,Wunderground v.1.15,2013-02-26 14:14:00,
2013-02-26 06:19:00,42.8,38.3,30.24,North,3,4.0,5.0,84,0.00,,,0.00,0,Wunderground v.1.15,2013-02-26 14:19:00,
2013-02-26 06:24:00,42.8,38.6,30.24,North,1,5.0,5.0,85,0.00,,,0.00,0,Wunderground v.1.15,2013-02-26 14:24:00,
2013-02-26 06:34:00,43.1,38.9,30.24,North,7,5.0,6.0,85,0.00,,,0.00,0,Wunderground v.1.15,2013-02-26 14:34:00,
2013-02-26 06:44:00,43.0,38.8,30.24,North,5,5.0,6.0,85,0.00,,,0.00,0,Wunderground v.1.15,2013-02-26 14:44:00,
2013-02-26 06:54:00,42.6,38.1,30.24,North,5,2.0,4.0,84,0.00,,,0.00,9,Wunderground v.1.15,2013-02-26 14:54:00,
2013-02-26 06:59:00,42.4,37.9,30.24,North,4,2.0,3.0,84,0.00,,,0.00,11,Wunderground v.1.15,2013-02-26 14:59:00,
2013-02-26 07:04:00,42.6,38.4,30.24,North,10,3.0,4.0,85,0.00,,,0.00,14,Wunderground v.1.15,2013-02-26 15:04:00,
2013-02-26 07:14:00,44.0,39.5,30.24,North,6,3.0,3.0,84,0.00,,,0.00,19,Wunderground v.1.15,2013-02-26 15:14:00,
2013-02-26 07:24:00,45.6,40.1,30.24,SSW,213,2.0,3.0,81,0.00,,,0.00,35,Wunderground v.1.15,2013-02-26 15:24:00,
2013-02-26 07:34:00,47.2,40.7,30.24,North,6,2.0,2.0,78,0.00,,,0.00,63,Wunderground v.1.15,2013-02-26 15:34:00,
2013-02-26 07:39:00,48.3,41.1,30.25,North,6,2.0,2.0,76,0.00,,,0.00,81,Wunderground v.1.15,2013-02-26 15:39:00,
2013-02-26 07:49:00,49.6,41.3,30.25,North,3,4.0,6.0,73,0.00,,,0.00,118,Wunderground v.1.15,2013-02-26 15:49:00,
2013-02-26 07:59:00,50.4,41.7,30.25,North,7,5.0,5.0,72,0.00,,,0.00,156,Wunderground v.1.15,2013-02-26 15:59:00,
2013-02-26 08:09:00,51.9,42.8,30.25,North,359,5.0,5.0,71,0.00,,,0.00,195,Wunderground v.1.15,2013-02-26 16:09:00,
2013-02-26 08:19:00,53.1,43.2,30.25,North,4,5.0,5.0,69,0.00,,,0.00,229,Wunderground v.1.15,2013-02-26 16:19:00,
2013-02-26 08:24:00,53.6,43.3,30.25,North,10,4.0,5.0,68,0.00,,,0.00,244,Wunderground v.1.15,2013-02-26 16:24:00,
2013-02-26 08:29:00,54.2,43.5,30.26,North,5,4.0,4.0,67,0.00,,,0.00,260,Wunderground v.1.15,2013-02-26 16:29:00,
2013-02-26 08:39:00,55.2,42.0,30.26,North,11,5.0,7.0,61,0.00,,,0.00,292,Wunderground v.1.15,2013-02-26 16:39:00,
2013-02-26 08:49:00,56.5,42.3,30.26,North,10,4.0,4.0,59,0.00,,,0.00,323,Wunderground v.1.15,2013-02-26 16:49:00,
2013-02-26 08:59:00,57.4,42.3,30.25,SSW,213,4.0,5.0,57,0.00,,,0.00,352,Wunderground v.1.15,2013-02-26 16:59:00,
2013-02-26 09:04:00,57.5,42.8,30.25,NNE,16,4.0,7.0,58,0.00,,,0.00,369,Wunderground v.1.15,2013-02-26 17:04:00,
2013-02-26 09:09:00,57.9,42.3,30.25,NNE,15,4.0,4.0,56,0.00,,,0.00,385,Wunderground v.1.15,2013-02-26 17:09:00,
2013-02-26 09:14:00,58.5,42.4,30.25,NNE,13,4.0,5.0,55,0.00,,,0.00,401,Wunderground v.1.15,2013-02-26 17:14:00,
2013-02-26 09:24:00,59.2,43.0,30.25,North,349,4.0,6.0,55,0.00,,,0.00,431,Wunderground v.1.15,2013-02-26 17:24:00,
2013-02-26 09:29:00,59.1,42.5,30.25,North,11,4.0,5.0,54,0.00,,,0.00,446,Wunderground v.1.15,2013-02-26 17:29:00,
2013-02-26 09:39:00,59.7,42.0,30.25,NNE,14,5.0,5.0,52,0.00,,,0.00,471,Wunderground v.1.15,2013-02-26 17:39:00,
2013-02-26 09:44:00,59.7,42.0,30.25,NNE,13,6.0,6.0,52,0.00,,,0.00,485,Wunderground v.1.15,2013-02-26 17:44:00,
2013-02-26 09:54:00,59.8,40.6,30.24,North,6,5.0,6.0,49,0.00,,,0.00,515,Wunderground v.1.15,2013-02-26 17:54:00,
2013-02-26 10:04:00,60.6,39.1,30.24,NNE,24,5.0,5.0,45,0.00,,,0.00,541,Wunderground v.1.15,2013-02-26 18:04:00,
2013-02-26 10:14:00,61.1,36.6,30.24,NNE,18,6.0,7.0,40,0.00,,,0.00,563,Wunderground v.1.15,2013-02-26 18:14:00,
2013-02-26 10:24:00,61.6,35.7,30.24,NNE,14,6.0,6.0,38,0.00,,,0.00,585,Wunderground v.1.15,2013-02-26 18:24:00,
2013-02-26 10:34:00,62.6,32.3,30.24,NE,45,6.0,9.0,32,0.00,,,0.00,610,Wunderground v.1.15,2013-02-26 18:34:00,
2013-02-26 10:39:00,62.8,32.5,30.24,NE,55,7.0,9.0,32,0.00,,,0.00,621,Wunderground v.1.15,2013-02-26 18:39:00,
2013-02-26 10:49:00,63.8,30.9,30.23,NE,35,6.0,7.0,29,0.00,,,0.00,640,Wunderground v.1.15,2013-02-26 18:49:00,
2013-02-26 10:59:00,63.9,31.0,30.23,NNE,18,8.0,8.0,29,0.00,,,0.00,657,Wunderground v.1.15,2013-02-26 18:59:00,
2013-02-26 11:09:00,64.2,34.5,30.22,North,358,6.0,7.0,33,0.00,,,0.00,675,Wunderground v.1.15,2013-02-26 19:09:00,
2013-02-26 11:19:00,64.6,32.4,30.22,North,5,7.0,7.0,30,0.00,,,0.00,693,Wunderground v.1.15,2013-02-26 19:19:00,
2013-02-26 11:24:00,64.7,32.5,30.22,North,6,8.0,13.0,30,0.00,,,0.00,698,Wunderground v.1.15,2013-02-26 19:24:00,
2013-02-26 11:34:00,65.0,31.1,30.23,NE,36,7.0,8.0,28,0.00,,,0.00,710,Wunderground v.1.15,2013-02-26 19:34:00,
2013-02-26 11:44:00,66.4,31.4,30.23,NNE,20,5.0,11.0,27,0.00,,,0.00,717,Wunderground v.1.15,2013-02-26 19:44:00,
2013-02-26 11:49:00,66.7,31.6,30.22,North,357,6.0,7.0,27,0.00,,,0.00,724,Wunderground v.1.15,2013-02-26 19:49:00,
2013-02-26 11:59:00,67.3,31.2,30.22,North,1,6.0,7.0,26,0.00,,,0.00,731,Wunderground v.1.15,2013-02-26 19:59:00,
2013-02-26 12:04:00,68.1,27.8,30.22,NE,41,5.0,8.0,22,0.00,,,0.00,737,Wunderground v.1.15,2013-02-26 20:04:00,
2013-02-26 12:14:00,67.1,31.0,30.21,SSW,213,8.0,8.0,26,0.00,,,0.00,742,Wunderground v.1.15,2013-02-26 20:14:00,
2013-02-26 12:19:00,67.0,27.9,30.20,NNE,12,6.0,6.0,23,0.00,,,0.00,744,Wunderground v.1.15,2013-02-26 20:19:00,
2013-02-26 12:29:00,67.9,27.6,30.20,NNW,334,6.0,6.0,22,0.00,,,0.00,747,Wunderground v.1.15,2013-02-26 20:29:00,
2013-02-26 12:34:00,68.4,26.9,30.20,North,357,5.0,6.0,21,0.00,,,0.00,747,Wunderground v.1.15,2013-02-26 20:34:00,
2013-02-26 12:39:00,68.5,27.0,30.20,North,4,6.0,8.0,21,0.00,,,0.00,749,Wunderground v.1.15,2013-02-26 20:39:00,
2013-02-26 12:49:00,68.7,26.0,30.19,NNW,346,6.0,7.0,20,0.00,,,0.00,747,Wunderground v.1.15,2013-02-26 20:49:00,
2013-02-26 12:59:00,68.9,24.9,30.19,North,353,6.0,6.0,19,0.00,,,0.00,744,Wunderground v.1.15,2013-02-26 20:59:00,
2013-02-26 13:09:00,69.6,25.5,30.18,North,3,4.0,4.0,19,0.00,,,0.00,737,Wunderground v.1.15,2013-02-26 21:09:00,
2013-02-26 13:19:00,70.5,24.9,30.18,WNW,297,4.0,5.0,18,0.00,,,0.00,729,Wunderground v.1.15,2013-02-26 21:19:00,
2013-02-26 13:29:00,61.3,35.5,30.18,WSW,256,7.0,7.0,38,0.00,,,0.00,721,Wunderground v.1.15,2013-02-26 21:29:00,
2013-02-26 13:39:00,60.0,38.6,30.18,SSW,213,7.0,7.0,45,0.00,,,0.00,714,Wunderground v.1.15,2013-02-26 21:39:00,
2013-02-26 13:49:00,60.3,42.1,30.18,WSW,253,5.0,5.0,51,0.00,,,0.00,703,Wunderground v.1.15,2013-02-26 21:49:00,
2013-02-26 13:59:00,59.6,41.4,30.17,SW,235,4.0,5.0,51,0.00,,,0.00,689,Wunderground v.1.15,2013-02-26 21:59:00,
2013-02-26 14:04:00,60.4,41.7,30.17,WSW,252,5.0,5.0,50,0.00,,,0.00,682,Wunderground v.1.15,2013-02-26 22:04:00,
2013-02-26 14:14:00,59.5,44.2,30.17,SSW,213,7.0,7.0,57,0.00,,,0.00,659,Wunderground v.1.15,2013-02-26 22:14:00,
2013-02-26 14:19:00,59.2,42.1,30.17,SSW,213,6.0,9.0,53,0.00,,,0.00,659,Wunderground v.1.15,2013-02-26 22:19:00,
2013-02-26 14:29:00,58.9,44.6,30.17,SSW,213,6.0,11.0,59,0.00,,,0.00,640,Wunderground v.1.15,2013-02-26 22:29:00,
2013-02-26 14:39:00,58.7,45.7,30.16,WSW,254,7.0,7.0,62,0.00,,,0.00,617,Wunderground v.1.15,2013-02-26 22:39:00,
2013-02-26 14:49:00,58.2,46.1,30.16,WSW,257,6.0,6.0,64,0.00,,,0.00,598,Wunderground v.1.15,2013-02-26 22:49:00,
2013-02-26 14:59:00,56.7,45.5,30.17,WSW,238,8.0,8.0,66,0.00,,,0.00,575,Wunderground v.1.15,2013-02-26 22:59:00,
2013-02-26 15:09:00,57.1,45.4,30.16,WSW,239,7.0,7.0,65,0.00,,,0.00,552,Wunderground v.1.15,2013-02-26 23:09:00,
2013-02-26 15:19:00,56.0,46.4,30.16,WSW,251,9.0,11.0,70,0.00,,,0.00,529,Wunderground v.1.15,2013-02-26 23:19:00,
2013-02-26 15:24:00,55.5,46.6,30.16,SSW,213,10.0,11.0,72,0.00,,,0.00,513,Wunderground v.1.15,2013-02-26 23:24:00,
2013-02-26 15:34:00,55.7,46.8,30.17,WSW,237,9.0,11.0,72,0.00,,,0.00,487,Wunderground v.1.15,2013-02-26 23:34:00,
2013-02-26 15:44:00,56.3,47.0,30.17,SW,226,8.0,9.0,71,0.00,,,0.00,462,Wunderground v.1.15,2013-02-26 23:44:00,
2013-02-26 15:49:00,56.4,47.1,30.17,SW,218,6.0,6.0,71,0.00,,,0.00,443,Wunderground v.1.15,2013-02-26 23:49:00,
2013-02-26 15:59:00,55.5,46.6,30.17,SW,234,7.0,7.0,72,0.00,,,0.00,336,Wunderground v.1.15,2013-02-26 23:59:00,
2013-02-26 16:09:00,55.7,47.2,30.16,SW,230,5.0,5.0,73,0.00,,,0.00,392,Wunderground v.1.15,2013-02-27 00:09:00,
2013-02-26 16:14:00,55.6,47.4,30.16,WSW,242,6.0,8.0,74,0.00,,,0.00,404,Wunderground v.1.15,2013-02-27 00:14:00,
2013-02-26 16:24:00,54.9,47.5,30.17,SW,225,7.0,10.0,76,0.00,,,0.00,323,Wunderground v.1.15,2013-02-27 00:24:00,
2013-02-26 16:34:00,54.8,47.7,30.16,SW,231,5.0,6.0,77,0.00,,,0.00,274,Wunderground v.1.15,2013-02-27 00:34:00,
2013-02-26 16:39:00,54.9,47.8,30.17,SW,230,4.0,4.0,77,0.00,,,0.00,281,Wunderground v.1.15,2013-02-27 00:39:00,
2013-02-26 16:49:00,55.2,48.1,30.17,SW,232,4.0,6.0,77,0.00,,,0.00,250,Wunderground v.1.15,2013-02-27 00:49:00,
2013-02-26 16:54:00,55.1,48.0,30.17,WSW,248,5.0,6.0,77,0.00,,,0.00,227,Wunderground v.1.15,2013-02-27 00:54:00,
2013-02-26 17:04:00,55.6,48.2,30.17,WSW,247,2.0,4.0,76,0.00,,,0.00,186,Wunderground v.1.15,2013-02-27 01:04:00,
2013-02-26 17:14:00,55.5,47.7,30.17,SW,235,3.0,3.0,75,0.00,,,0.00,169,Wunderground v.1.15,2013-02-27 01:14:00,
2013-02-26 17:19:00,55.1,47.7,30.17,SSW,200,3.0,3.0,76,0.00,,,0.00,149,Wunderground v.1.15,2013-02-27 01:19:00,
2013-02-26 17:29:00,54.5,47.4,30.17,SSW,199,3.0,4.0,77,0.00,,,0.00,98,Wunderground v.1.15,2013-02-27 01:29:00,
2013-02-26 17:39:00,54.5,47.1,30.17,SSW,213,3.0,3.0,76,0.00,,,0.00,54,Wunderground v.1.15,2013-02-27 01:39:00,
2013-02-26 17:49:00,54.4,47.7,30.18,SSW,195,4.0,4.0,78,0.00,,,0.00,21,Wunderground v.1.15,2013-02-27 01:49:00,
2013-02-26 17:54:00,54.4,47.7,30.18,SSW,193,3.0,4.0,78,0.00,,,0.00,12,Wunderground v.1.15,2013-02-27 01:54:00,
2013-02-26 18:04:00,54.1,47.4,30.18,SSW,195,2.0,2.0,78,0.00,,,0.00,0,Wunderground v.1.15,2013-02-27 02:04:00,
2013-02-26 18:14:00,54.0,47.6,30.18,SSW,193,1.0,3.0,79,0.00,,,0.00,0,Wunderground v.1.15,2013-02-27 02:14:00,
2013-02-26 18:24:00,53.7,48.0,30.18,SSW,195,3.0,4.0,81,0.00,,,0.00,0,Wunderground v.1.15,2013-02-27 02:24:00,
2013-02-26 18:34:00,53.3,48.3,30.18,SSW,195,4.0,4.0,83,0.00,,,0.00,0,Wunderground v.1.15,2013-02-27 02:34:00,
2013-02-26 18:39:00,53.2,48.2,30.18,SSW,195,4.0,4.0,83,0.00,,,0.00,0,Wunderground v.1.15,2013-02-27 02:39:00,
2013-02-26 18:49:00,53.1,48.7,30.18,South,186,4.0,5.0,85,0.00,,,0.00,0,Wunderground v.1.15,2013-02-27 02:49:00,
2013-02-26 18:59:00,52.9,48.5,30.18,South,180,6.0,6.0,85,0.00,,,0.00,0,Wunderground v.1.15,2013-02-27 02:59:00,
2013-02-26 19:04:00,52.9,48.5,30.18,South,180,6.0,6.0,85,0.00,,,0.00,0,Wunderground v.1.15,2013-02-27 03:04:00,
2013-02-26 19:14:00,53.1,49.0,30.19,South,181,4.0,5.0,86,0.00,,,0.00,0,Wunderground v.1.15,2013-02-27 03:14:00,
2013-02-26 19:19:00,53.0,48.9,30.19,South,181,3.0,3.0,86,0.00,,,0.00,0,Wunderground v.1.15,2013-02-27 03:19:00,
2013-02-26 19:29:00,52.6,48.5,30.19,South,181,0.0,0.0,86,0.00,,,0.00,0,Wunderground v.1.15,2013-02-27 03:29:00,
2013-02-26 19:34:00,52.4,48.3,30.19,South,181,0.0,0.0,86,0.00,,,0.00,0,Wunderground v.1.15,2013-02-27 03:34:00,
2013-02-26 19:44:00,52.3,48.5,30.20,South,180,0.0,0.0,87,0.00,,,0.00,0,Wunderground v.1.15,2013-02-27 03:44:00,
2013-02-26 19:54:00,52.0,48.3,30.20,South,180,0.0,0.0,87,0.00,,,0.00,0,Wunderground v.1.15,2013-02-27 03:54:00,
2013-02-26 19:59:00,51.9,48.5,30.20,South,181,0.0,0.0,88,0.00,,,0.00,0,Wunderground v.1.15,2013-02-27 03:59:00,
2013-02-26 20:05:00,51.8,48.1,30.20,South,181,0.0,0.0,87,0.00,,,0.00,0,Wunderground v.1.15,2013-02-27 04:05:00,
2013-02-26 20:14:00,51.4,47.7,30.20,South,181,0.0,0.0,87,0.00,,,0.00,0,Wunderground v.1.15,2013-02-27 04:14:00,
2013-02-26 20:19:00,51.2,47.5,30.21,South,180,0.0,0.0,87,0.00,,,0.00,0,Wunderground v.1.15,2013-02-27 04:19:00,
2013-02-26 20:29:00,51.2,47.8,30.21,South,180,0.0,0.0,88,0.00,,,0.00,0,Wunderground v.1.15,2013-02-27 04:29:00,
2013-02-26 20:34:00,51.3,47.9,30.21,South,179,0.0,0.0,88,0.00,,,0.00,0,Wunderground v.1.15,2013-02-27 04:34:00,
2013-02-26 20:44:00,51.4,48.3,30.21,South,180,2.0,3.0,89,0.00,,,0.00,0,Wunderground v.1.15,2013-02-27 04:44:00,
2013-02-26 20:49:00,51.4,48.3,30.21,South,180,2.0,2.0,89,0.00,,,0.00,0,Wunderground v.1.15,2013-02-27 04:49:00,
2013-02-26 20:59:00,51.5,48.4,30.21,South,182,3.0,3.0,89,0.00,,,0.00,0,Wunderground v.1.15,2013-02-27 04:59:00,
2013-02-26 21:04:00,51.5,48.1,30.22,South,181,2.0,3.0,88,0.00,,,0.00,0,Wunderground v.1.15,2013-02-27 05:04:00,
2013-02-26 21:09:00,51.6,48.2,30.21,South,182,2.0,3.0,88,0.00,,,0.00,0,Wunderground v.1.15,2013-02-27 05:09:00,
2013-02-26 21:14:00,51.7,48.3,30.21,South,180,2.0,3.0,88,0.00,,,0.00,0,Wunderground v.1.15,2013-02-27 05:14:00,
2013-02-26 21:19:00,51.6,48.2,30.22,South,179,2.0,3.0,88,0.00,,,0.00,0,Wunderground v.1.15,2013-02-27 05:19:00,
2013-02-26 21:24:00,51.6,48.2,30.21,South,181,3.0,3.0,88,0.00,,,0.00,0,Wunderground v.1.15,2013-02-27 05:24:00,
2013-02-26 21:29:00,51.6,48.2,30.22,South,180,3.0,3.0,88,0.00,,,0.00,0,Wunderground v.1.15,2013-02-27 05:29:00,
2013-02-26 21:39:00,51.4,47.7,30.22,South,179,2.0,2.0,87,0.00,,,0.00,0,Wunderground v.1.15,2013-02-27 05:39:00,
2013-02-26 21:49:00,51.2,47.5,30.22,South,180,1.0,1.0,87,0.00,,,0.00,0,Wunderground v.1.15,2013-02-27 05:49:00,
2013-02-26 21:54:00,50.9,47.2,30.23,South,181,0.0,1.0,87,0.00,,,0.00,0,Wunderground v.1.15,2013-02-27 05:54:00,
2013-02-26 21:59:00,50.6,46.9,30.23,South,181,0.0,0.0,87,0.00,,,0.00,0,Wunderground v.1.15,2013-02-27 05:59:00,
2013-02-26 22:04:00,50.3,46.6,30.23,South,180,0.0,0.0,87,0.00,,,0.00,0,Wunderground v.1.15,2013-02-27 06:04:00,
2013-02-26 22:14:00,49.9,46.2,30.23,South,180,0.0,0.0,87,0.00,,,0.00,0,Wunderground v.1.15,2013-02-27 06:14:00,
2013-02-26 22:24:00,49.5,46.1,30.23,South,180,0.0,0.0,88,0.00,,,0.00,0,Wunderground v.1.15,2013-02-27 06:24:00,
2013-02-26 22:34:00,49.2,45.8,30.23,South,180,0.0,0.0,88,0.00,,,0.00,0,Wunderground v.1.15,2013-02-27 06:34:00,
2013-02-26 22:44:00,49.0,45.9,30.23,South,180,0.0,0.0,89,0.00,,,0.00,0,Wunderground v.1.15,2013-02-27 06:44:00,
2013-02-26 22:54:00,49.0,45.9,30.23,South,181,0.0,0.0,89,0.00,,,0.00,0,Wunderground v.1.15,2013-02-27 06:54:00,
2013-02-26 23:04:00,50.0,47.2,30.24,South,179,1.0,2.0,90,0.00,,,0.00,0,Wunderground v.1.15,2013-02-27 07:04:00,
2013-02-26 23:14:00,50.2,47.4,30.24,South,181,0.0,1.0,90,0.00,,,0.00,0,Wunderground v.1.15,2013-02-27 07:14:00,
2013-02-26 23:19:00,50.1,47.0,30.24,South,180,0.0,0.0,89,0.00,,,0.00,0,Wunderground v.1.15,2013-02-27 07:19:00,
2013-02-26 23:29:00,49.7,46.6,30.24,South,180,0.0,0.0,89,0.00,,,0.00,0,Wunderground v.1.15,2013-02-27 07:29:00,
2013-02-26 23:34:00,49.4,46.3,30.24,South,180,0.0,0.0,89,0.00,,,0.00,0,Wunderground v.1.15,2013-02-27 07:34:00,
2013-02-26 23:39:00,49.1,46.0,30.24,South,181,0.0,0.0,89,0.00,,,0.00,0,Wunderground v.1.15,2013-02-27 07:39:00,
2013-02-26 23:49:00,48.8,45.7,30.24,South,181,0.0,0.0,89,0.00,,,0.00,0,Wunderground v.1.15,2013-02-27 07:49:00,
2013-02-26 23:59:00,48.8,45.7,30.24,South,181,0.0,0.0,89,0.00,,,0.00,0,Wunderground v.1.15,2013-02-27 07:59:00,